SL-19 DEB, 23479

Orbit data source: Space-Track

SL-19 DEB, 23479 is space debris in LEO originally from a launch on Mon, 26 Dec 1994 UTC launched from the Tyuratam Missile And Space Complex (TTMTR). Debris objects in space refer to the collection of defunct objects orbiting the Earth. Examples of debris include non-operational satellites, rocket bodies, and fragments generated from explosions, collisions, or faulty payload assembly.

Loading next visibility...
Identifier
23479, 1994-085C
Orbit
LEO
Country
Flag of CISCIS
Related business
Manufacturer
Unknown
Mission
Spacecraft
Bus & Motor
Unknown
Mass
Unknown
Launch date (UTC)
1994-12-26 (31 years ago)
Launch vehicle
Unknown
Launch site
Tyuratam Missile And Space Complex (TTMTR)
Object type
Payload
Rocket body
Debris
Shape & HBR
Unknown shape, 0.3 m
Radar Cross Section
Medium (>0.1 m² and <1 m²)

Expand to show TLE details & history
Last TLE update: 11 hours ago

TLE from 11 hours ago
0 SL-19 DEB
1 23479U 94085C   25310.05320602 -.00000576  00000-0 -12562-1 0  9997
2 23479  65.0428 236.7548 0086842  45.1914  42.2669 11.45220725287666
Epoch: 2025-11-06T01:16Z
TLE epoch observation values (Epoch: 2025-11-06T01:16:37.000Z)
Latitude
65.08046°
Longitude
-102.33866°
Altitude
1,893.019 km
Speed
6.971 km/s
True Right ascension
21h 29m 19s
True Declination
64° 58' 01"
Sunlit
Object was in daylight at epoch
Visualization orbit readout
Latitude
Unknown
Longitude
Unknown
Altitude
Unknown
Speed
Unknown
Apparent Right ascension
Unknown
Apparent Declination
Unknown
Sunlit
N/A
Visualization observer readout
Local Sidereal Time
08:26:06
Azimuth
Unknown
Elevation
Unknown
Doppler factor
Unknown
Orbital elements
Apogee altitude
2,006.805 km
Perigee altitude
1,862.426 km
Semi-major axis
8,312.752 km
Eccentricity
0.00868
Inclination
65.0428°
RAAN
236.7548°
Arg. of periapsis
45.1914°
True anomaly
42.94162°
Mean anomaly
42.2669°
Eccentric anomaly
42.60372°
Mean motion
2.86369 °/min
Orbital period
125.71 mins
BSTAR
-0.012562
Loading maneuver chart data...
Computing Atmospheric mass density...
Loading historical data...
Loading historical data...
Loading historical data...
Loading historical data...
Loading historical data...
Loading historical data...
Loading historical data...

Documentation

Showing up to 5 results
|